KI4TXI Weather Reports


Display with metric or nautical units.
time (UTC)temp
F
wind
direction
speed
MPH
gust
MPH
rain 1hr
in
rain 24hr
in
rain mn
in
humidity
%
barometer
mb
20171214041441 44 265 1.0 2.0 0.00 0.00 0.00 67 1020.2
20171214040940 44 265 1.0 2.0 0.00 0.00 0.00 66 1020.1
20171214040440 44 265 0.0 2.0 0.00 0.00 0.00 66 1020.1
20171214040000 44 265 1.0 2.0 0.00 0.00 0.00 66 1020.2
20171214035459 45 264 1.0 2.0 0.00 0.00 0.00 66 1020.2
20171214035000 45 264 0.0 2.0 0.00 0.00 0.00 65 1020.3
20171214034440 45 265 0.0 2.0 0.00 0.00 0.00 64 1020.0
20171214033945 45 264 0.0 2.0 0.00 0.00 0.00 64 1020.0
20171214033443 45 265 0.0 3.0 0.00 0.00 0.00 64 1020.0
20171214032944 45 264 0.0 3.0 0.00 0.00 0.00 63 1020.1
20171214032444 45 264 2.0 2.0 0.00 0.00 0.00 63 1020.1
20171214031942 45 265 2.0 3.0 0.00 0.00 0.00 62 1019.9
20171214031443 45 306 1.0 3.0 0.00 0.00 0.00 62 1019.9
20171214030941 45 306 1.0 4.0 0.00 0.00 0.00 61 1019.9
20171214030441 45 306 0.0 4.0 0.00 0.00 0.00 62 1019.8
20171214025940 45 306 0.0 2.0 0.00 0.00 0.00 62 1019.9
20171214025441 44 306 0.0 2.0 0.00 0.00 0.00 62 1019.9
20171214024940 44 306 0.0 2.0 0.00 0.00 0.00 63 1020.0
20171214024440 44 306 0.0 2.0 0.00 0.00 0.00 64 1019.9
20171214023959 43 306 0.0 1.0 0.00 0.00 0.00 65 1019.9
20171214023454 43 306 0.0 1.0 0.00 0.00 0.00 65 1019.8
20171214022957 42 306 0.0 0.0 0.00 0.00 0.00 66 1019.8
20171214022455 42 306 0.0 0.0 0.00 0.00 0.00 67 1020.0
20171214021954 41 306 0.0 0.0 0.00 0.00 0.00 69 1019.8
20171214021455 41 306 0.0 0.0 0.00 0.00 0.00 70 1019.7
20171214020954 41 306 0.0 0.0 0.00 0.00 0.00 70 1019.7
20171214020455 41 306 0.0 0.0 0.00 0.00 0.00 66 1019.9
20171214015954 41 306 0.0 0.0 0.00 0.00 0.00 68 1020.0
20171214015453 41 306 0.0 0.0 0.00 0.00 0.00 67 1019.8
20171214014956 41 306 0.0 0.0 0.00 0.00 0.00 67 1019.9
20171214014455 42 306 0.0 0.0 0.00 0.00 0.00 68 1019.9
20171214013954 42 306 0.0 0.0 0.00 0.00 0.00 68 1020.0
20171214013454 42 306 0.0 0.0 0.00 0.00 0.00 68 1020.1
20171214012954 42 306 0.0 0.0 0.00 0.00 0.00 68 1020.2
20171214012454 42 306 0.0 0.0 0.00 0.00 0.00 68 1020.1
20171214011954 42 306 0.0 0.0 0.00 0.00 0.00 69 1019.9
20171214011453 42 306 0.0 0.0 0.00 0.00 0.00 67 1020.0
20171214010953 42 306 0.0 0.0 0.00 0.00 0.00 69 1020.1
20171214010451 42 306 0.0 0.0 0.00 0.00 0.00 69 1020.2
20171214005951 42 306 0.0 0.0 0.00 0.00 0.00 68 1020.3
20171214005451 42 306 0.0 0.0 0.00 0.00 0.00 68 1020.2
20171214004949 42 306 0.0 0.0 0.00 0.00 0.00 70 1020.2
20171214004450 42 306 0.0 0.0 0.00 0.00 0.00 69 1020.3
20171214003950 42 306 0.0 0.0 0.00 0.00 0.00 69 1020.2
20171214003450 42 306 0.0 0.0 0.00 0.00 0.00 67 1020.2
20171214002951 42 306 0.0 0.0 0.00 0.00 0.00 66 1020.4
20171214002450 43 306 0.0 0.0 0.00 0.00 0.00 67 1020.3
20171214001954 43 306 0.0 0.0 0.00 0.00 0.00 66 1020.4
20171214001454 43 306 0.0 0.0 0.00 0.00 0.00 67 1020.3
20171214000950 44 306 0.0 0.0 0.00 0.00 0.00 66 1020.2
20171214000450 44 306 0.0 0.0 0.00 0.00 0.00 66 1020.3
20171213235949 44 306 0.0 0.0 0.00 0.00 0.00 64 1020.5
20171213235449 44 306 0.0 0.0 0.00 0.00 0.00 63 1020.5
20171213234948 45 306 0.0 0.0 0.00 0.00 0.00 63 1020.6
20171213234449 45 306 0.0 0.0 0.00 0.00 0.00 62 1020.8
20171213233949 45 306 0.0 0.0 0.00 0.00 0.00 62 1021.1
20171213233450 46 306 0.0 0.0 0.00 0.00 0.00 60 1021.0
20171213232949 46 306 0.0 0.0 0.00 0.00 0.00 59 1021.1
20171213232451 47 306 0.0 0.0 0.00 0.00 0.00 57 1021.1
20171213231951 47 306 0.0 0.0 0.00 0.00 0.00 56 1021.1
20171213231454 48 306 0.0 0.0 0.00 0.00 0.00 56 1021.3
20171213230954 48 306 0.0 0.0 0.00 0.00 0.00 55 1021.2
20171213230455 49 306 0.0 0.0 0.00 0.00 0.00 52 1021.3
20171213225954 49 306 0.0 0.0 0.00 0.00 0.00 51 1021.2
20171213225455 50 306 0.0 0.0 0.00 0.00 0.00 50 1021.3
20171213224955 50 306 0.0 0.0 0.00 0.00 0.00 47 1021.3
20171213224456 51 306 0.0 0.0 0.00 0.00 0.00 47 1021.2
20171213223953 51 306 0.0 0.0 0.00 0.00 0.00 46 1021.2
20171213223452 52 306 0.0 0.0 0.00 0.00 0.00 45 1021.1
20171213222951 52 306 0.0 0.0 0.00 0.00 0.00 44 1021.0
20171213222452 53 306 0.0 0.0 0.00 0.00 0.00 43 1021.0
20171213221951 53 306 0.0 0.0 0.00 0.00 0.00 42 1021.0
20171213221452 54 306 0.0 0.0 0.00 0.00 0.00 41 1021.0
20171213220957 54 306 0.0 1.0 0.00 0.00 0.00 39 1021.1
20171213220456 54 306 0.0 1.0 0.00 0.00 0.00 39 1021.0
20171213215957 54 306 0.0 2.0 0.00 0.00 0.00 39 1021.2
20171213215453 54 306 0.0 2.0 0.00 0.00 0.00 38 1021.3
20171213214954 54 304 0.0 1.0 0.00 0.00 0.00 40 1021.5
20171213214454 54 305 0.0 1.0 0.00 0.00 0.00 39 1021.5
20171213213954 54 306 0.0 0.0 0.00 0.00 0.00 39 1021.4
20171213213453 55 306 0.0 2.0 0.00 0.00 0.00 37 1021.5
20171213212953 55 306 0.0 2.0 0.00 0.00 0.00 37 1021.7
20171213212453 55 306 0.0 4.0 0.00 0.00 0.00 37 1021.7
20171213211952 55 306 1.0 5.0 0.00 0.00 0.00 37 1021.8
20171213211452 55 306 1.0 5.0 0.00 0.00 0.00 36 1022.0
20171213210951 55 305 3.0 7.0 0.00 0.00 0.00 36 1022.1
20171213210456 55 339 2.0 7.0 0.00 0.00 0.00 34 1022.2
20171213205957 55 292 1.0 4.0 0.00 0.00 0.00 35 1022.2
20171213205456 55 291 1.0 6.0 0.00 0.00 0.00 35 1022.2
20171213204956 56 290 2.0 6.0 0.00 0.00 0.00 34 1022.3
20171213204457 56 322 1.0 6.0 0.00 0.00 0.00 33 1022.3
20171213203956 56 307 0.0 4.0 0.00 0.00 0.00 35 1022.3
20171213203452 56 309 1.0 4.0 0.00 0.00 0.00 35 1022.3
20171213202952 56 267 0.0 4.0 0.00 0.00 0.00 35 1022.2
20171213202451 56 309 4.0 5.0 0.00 0.00 0.00 35 1022.2
20171213201951 56 325 0.0 5.0 0.00 0.00 0.00 34 1022.2
20171213201451 56 279 1.0 4.0 0.00 0.00 0.00 33 1022.2
20171213200950 56 277 1.0 3.0 0.00 0.00 0.00 34 1022.3
20171213200449 55 264 0.0 7.0 0.00 0.00 0.00 32 1022.3
20171213195953 56 336 5.0 7.0 0.00 0.00 0.00 33 1022.2
20171213195453 56 311 0.0 2.0 0.00 0.00 0.00 34 1022.2
20171213194954 55 335 0.0 4.0 0.00 0.00 0.00 35 1022.2
20171213194453 55 337 0.0 4.0 0.00 0.00 0.00 33 1022.3
20171213193952 55 336 1.0 6.0 0.00 0.00 0.00 36 1022.5
20171213193452 55 337 1.0 6.0 0.00 0.00 0.00 33 1022.5
20171213192947 56 335 4.0 6.0 0.00 0.00 0.00 32 1022.5
20171213192446 56 248 1.0 2.0 0.00 0.00 0.00 34 1022.6
20171213191946 56 248 0.0 2.0 0.00 0.00 0.00 35 1022.6
20171213191447 56 248 0.0 2.0 0.00 0.00 0.00 33 1022.7
20171213190947 57 248 0.0 4.0 0.00 0.00 0.00 32 1022.7
20171213190446 57 242 0.0 5.0 0.00 0.00 0.00 32 1023.0
20171213185945 57 242 0.0 5.0 0.00 0.00 0.00 32 1023.2
20171213185449 57 169 1.0 5.0 0.00 0.00 0.00 33 1023.2
20171213184949 56 264 0.0 2.0 0.00 0.00 0.00 32 1023.3
20171213184449 57 264 0.0 2.0 0.00 0.00 0.00 32 1023.5
20171213183949 56 264 0.0 2.0 0.00 0.00 0.00 30 1023.6
20171213183449 57 248 0.0 7.0 0.00 0.00 0.00 31 1023.6
20171213182948 57 241 2.0 7.0 0.00 0.00 0.00 31 1023.9
20171213182448 56 245 2.0 7.0 0.00 0.00 0.00 32 1024.0
20171213181947 55 182 0.0 7.0 0.00 0.00 0.00 34 1024.1
20171213181447 55 227 1.0 7.0 0.00 0.00 0.00 32 1024.3
20171213180947 55 233 0.0 5.0 0.00 0.00 0.00 32 1024.3
20171213180447 55 203 2.0 5.0 0.00 0.00 0.00 32 1024.5
20171213175947 54 263 1.0 7.0 0.00 0.00 0.00 34 1024.6
20171213175448 53 215 2.0 4.0 0.00 0.00 0.00 34 1024.7
20171213174950 53 311 0.0 3.0 0.00 0.00 0.00 36 1024.9
20171213174450 53 311 1.0 4.0 0.00 0.00 0.00 34 1025.0
20171213173949 53 310 0.0 4.0 0.00 0.00 0.00 36 1025.2
20171213173449 53 269 0.0 4.0 0.00 0.00 0.00 37 1025.4
20171213172948 53 242 0.0 2.0 0.00 0.00 0.00 34 1025.4
20171213172449 53 241 1.0 3.0 0.00 0.00 0.00 37 1025.5
20171213171949 53 216 0.0 3.0 0.00 0.00 0.00 37 1025.4
20171213171448 52 213 0.0 1.0 0.00 0.00 0.00 38 1025.6
20171213170949 51 213 0.0 2.0 0.00 0.00 0.00 40 1025.6
20171213170449 51 217 0.0 5.0 0.00 0.00 0.00 37 1025.9
20171213165949 50 219 3.0 5.0 0.00 0.00 0.00 39 1026.1
20171213165449 50 210 0.0 1.0 0.00 0.00 0.00 39 1026.1
20171213164950 50 210 0.0 4.0 0.00 0.00 0.00 39 1026.2
20171213164454 49 209 0.0 4.0 0.00 0.00 0.00 42 1026.3
20171213163954 48 210 0.0 1.0 0.00 0.00 0.00 44 1026.3
20171213163454 48 210 0.0 5.0 0.00 0.00 0.00 43 1026.4
20171213162954 48 209 0.0 5.0 0.00 0.00 0.00 44 1026.6
20171213162454 47 229 0.0 2.0 0.00 0.00 0.00 47 1026.8
20171213161954 46 229 0.0 2.0 0.00 0.00 0.00 48 1027.0
20171213161454 45 229 0.0 5.0 0.00 0.00 0.00 51 1027.0
20171213160955 45 255 0.0 5.0 0.00 0.00 0.00 49 1027.0
20171213160450 44 329 0.0 1.0 0.00 0.00 0.00 52 1027.1
20171213155950 44 329 0.0 1.0 0.00 0.00 0.00 53 1027.1
20171213155451 43 329 0.0 1.0 0.00 0.00 0.00 52 1027.2
20171213154951 43 329 0.0 2.0 0.00 0.00 0.00 54 1027.2
20171213154450 43 329 0.0 2.0 0.00 0.00 0.00 54 1027.3
20171213153953 42 329 0.0 1.0 0.00 0.00 0.00 55 1027.3
20171213153452 42 329 0.0 3.0 0.00 0.00 0.00 55 1027.4
20171213152952 42 329 0.0 5.0 0.00 0.00 0.00 54 1027.2
20171213152451 42 329 3.0 5.0 0.00 0.00 0.00 55 1027.2
20171213151950 41 329 0.0 1.0 0.00 0.00 0.00 53 1027.2
20171213151451 41 329 0.0 1.0 0.00 0.00 0.00 56 1027.3
20171213150950 41 329 0.0 0.0 0.00 0.00 0.00 56 1027.3
20171213150449 40 329 0.0 4.0 0.00 0.00 0.00 57 1027.3
20171213145949 40 329 0.0 4.0 0.00 0.00 0.00 58 1027.2
20171213145449 40 329 0.0 1.0 0.00 0.00 0.00 63 1026.9
20171213144948 39 329 0.0 1.0 0.00 0.00 0.00 62 1026.9
20171213144449 39 329 0.0 0.0 0.00 0.00 0.00 61 1026.9
20171213143949 39 329 0.0 2.0 0.00 0.00 0.00 67 1026.9
20171213143454 38 329 1.0 2.0 0.00 0.00 0.00 72 1026.9
20171213142953 38 329 0.0 1.0 0.00 0.00 0.00 73 1026.8
20171213142452 37 329 0.0 0.0 0.00 0.00 0.00 75 1026.8
20171213141953 37 329 0.0 0.0 0.00 0.00 0.00 78 1026.7
20171213141454 36 329 0.0 0.0 0.00 0.00 0.00 82 1026.7
20171213140955 35 329 0.0 0.0 0.00 0.00 0.00 84 1026.7
20171213140455 34 329 0.0 1.0 0.00 0.00 0.00 86 1026.7
20171213135955 33 329 0.0 1.0 0.00 0.00 0.00 88 1026.8
20171213135455 33 329 0.0 0.0 0.00 0.00 0.00 89 1026.8
20171213134955 32 329 0.0 0.0 0.00 0.00 0.00 90 1026.7
20171213134452 31 329 0.0 0.0 0.00 0.00 0.00 91 1026.7
20171213133951 31 329 0.0 0.0 0.00 0.00 0.00 91 1026.7
20171213133451 31 329 0.0 0.0 0.00 0.00 0.00 90 1026.6
20171213132955 30 329 0.0 0.0 0.00 0.00 0.00 90 1026.5
20171213132456 30 329 0.0 0.0 0.00 0.00 0.00 90 1026.4
20171213131955 30 329 0.0 0.0 0.00 0.00 0.00 90 1026.4
20171213131456 30 329 0.0 0.0 0.00 0.00 0.00 90 1026.4
20171213130956 30 329 0.0 0.0 0.00 0.00 0.00 89 1026.5
20171213130456 30 329 0.0 0.0 0.00 0.00 0.00 89 1026.5
20171213125957 30 329 0.0 0.0 0.00 0.00 0.00 89 1026.4
20171213125456 30 329 0.0 0.0 0.00 0.00 0.00 89 1026.3
20171213124956 30 329 0.0 0.0 0.00 0.00 0.00 89 1026.2
20171213124456 29 329 0.0 0.0 0.00 0.00 0.00 88 1026.3
20171213123952 30 329 0.0 0.0 0.00 0.00 0.00 88 1026.3
20171213123453 30 329 0.0 0.0 0.00 0.00 0.00 88 1026.3
20171213122954 30 329 0.0 0.0 0.00 0.00 0.00 87 1026.3
20171213122457 30 329 0.0 0.0 0.00 0.00 0.00 86 1026.3
20171213121957 30 329 0.0 0.0 0.00 0.00 0.00 86 1026.2
20171213121458 30 329 0.0 0.0 0.00 0.00 0.00 86 1026.2
20171213120957 30 329 0.0 0.0 0.00 0.00 0.00 86 1026.1
20171213120457 30 329 0.0 0.0 0.00 0.00 0.00 86 1026.2
20171213115957 30 329 0.0 0.0 0.00 0.00 0.00 86 1026.1
20171213115457 30 329 0.0 0.0 0.00 0.00 0.00 86 1026.0
20171213114956 30 329 0.0 0.0 0.00 0.00 0.00 86 1025.9
20171213114456 30 329 0.0 0.0 0.00 0.00 0.00 86 1025.9
20171213113956 30 329 0.0 0.0 0.00 0.00 0.00 86 1025.8
20171213113456 31 329 0.0 0.0 0.00 0.00 0.00 86 1025.9
20171213112948 31 329 0.0 0.0 0.00 0.00 0.00 86 1025.8
20171213112449 31 329 0.0 0.0 0.00 0.00 0.00 85 1025.6
20171213111953 31 329 0.0 0.0 0.00 0.00 0.00 85 1025.7
20171213111453 31 329 0.0 0.0 0.00 0.00 0.00 85 1025.6
20171213110953 31 329 0.0 0.0 0.00 0.00 0.00 83 1025.6
20171213110454 32 329 0.0 0.0 0.00 0.00 0.00 83 1025.7
20171213105949 32 329 0.0 0.0 0.00 0.00 0.00 82 1025.7
20171213105448 32 329 0.0 0.0 0.00 0.00 0.00 82 1025.6
20171213104947 33 329 0.0 0.0 0.00 0.00 0.00 82 1025.5
20171213104447 33 329 0.0 0.0 0.00 0.00 0.00 80 1025.5
20171213103948 33 329 0.0 0.0 0.00 0.00 0.00 80 1025.4
20171213103448 33 329 0.0 0.0 0.00 0.00 0.00 80 1025.4
20171213102949 33 329 0.0 0.0 0.00 0.00 0.00 81 1025.4
20171213102448 33 329 0.0 0.0 0.00 0.00 0.00 80 1025.3
20171213101949 33 329 0.0 0.0 0.00 0.00 0.00 79 1025.4
20171213101454 34 329 0.0 0.0 0.00 0.00 0.00 79 1025.3
20171213100954 34 329 0.0 0.0 0.00 0.00 0.00 78 1025.4
20171213100455 34 329 0.0 0.0 0.00 0.00 0.00 77 1025.4
20171213095953 34 329 0.0 0.0 0.00 0.00 0.00 77 1025.3
20171213095453 34 329 0.0 0.0 0.00 0.00 0.00 76 1025.4
20171213094952 34 329 0.0 0.0 0.00 0.00 0.00 77 1025.4
20171213094452 35 329 0.0 0.0 0.00 0.00 0.00 76 1025.5
20171213093953 35 329 0.0 0.0 0.00 0.00 0.00 76 1025.4
20171213093454 35 329 0.0 0.0 0.00 0.00 0.00 74 1025.4
20171213092955 35 329 0.0 0.0 0.00 0.00 0.00 73 1025.3
20171213092454 35 329 0.0 0.0 0.00 0.00 0.00 73 1025.3
20171213091954 35 329 0.0 0.0 0.00 0.00 0.00 74 1025.2
20171213091455 36 329 0.0 0.0 0.00 0.00 0.00 75 1025.1
20171213090959 36 329 0.0 0.0 0.00 0.00 0.00 74 1025.3
20171213090456 36 329 0.0 1.0 0.00 0.00 0.00 75 1025.2
20171213085954 36 329 0.0 1.0 0.00 0.00 0.00 75 1025.4
20171213085454 36 329 0.0 0.0 0.00 0.00 0.00 75 1025.4
20171213084953 36 329 0.0 0.0 0.00 0.00 0.00 75 1025.4
20171213084453 37 329 0.0 0.0 0.00 0.00 0.00 75 1025.5
20171213083953 37 329 0.0 2.0 0.00 0.00 0.00 75 1025.4
20171213083451 37 329 0.0 2.0 0.00 0.00 0.00 75 1025.4
20171213082950 37 329 0.0 1.0 0.00 0.00 0.00 74 1025.4
20171213082449 37 329 0.0 1.0 0.00 0.00 0.00 74 1025.4
20171213081948 37 329 0.0 1.0 0.00 0.00 0.00 73 1025.3
20171213081448 38 329 0.0 1.0 0.00 0.00 0.00 73 1025.2
20171213080948 38 329 0.0 2.0 0.00 0.00 0.00 73 1025.2
20171213080450 38 329 0.0 2.0 0.00 0.00 0.00 72 1025.3
20171213075952 38 329 0.0 3.0 0.00 0.00 0.00 73 1025.2
20171213075451 38 329 0.0 3.0 0.00 0.00 0.00 73 1025.1
20171213074953 38 329 0.0 4.0 0.00 0.00 0.00 73 1025.0
20171213074452 38 329 0.0 4.0 0.00 0.00 0.00 74 1024.9
20171213073952 38 329 0.0 1.0 0.00 0.00 0.00 75 1024.9
20171213073452 38 329 0.0 2.0 0.00 0.00 0.00 74 1024.8
20171213072952 38 329 0.0 2.0 0.00 0.00 0.00 75 1024.8
20171213072451 38 329 0.0 2.0 0.00 0.00 0.00 74 1024.7
20171213071950 38 329 0.0 1.0 0.00 0.00 0.00 75 1024.8
20171213071451 38 329 0.0 1.0 0.00 0.00 0.00 75 1024.8
20171213070951 39 329 0.0 1.0 0.00 0.00 0.00 75 1024.8
20171213070450 39 329 1.0 2.0 0.00 0.00 0.00 75 1024.8
20171213065954 39 329 0.0 2.0 0.00 0.00 0.00 75 1024.7
20171213065454 39 329 0.0 3.0 0.00 0.00 0.00 75 1024.7
20171213064954 39 329 1.0 3.0 0.00 0.00 0.00 75 1024.6
20171213064454 39 329 1.0 3.0 0.00 0.00 0.00 76 1024.7
20171213063954 39 329 0.0 2.0 0.00 0.00 0.00 77 1024.6
20171213063455 39 329 0.0 2.0 0.00 0.00 0.00 77 1024.5
20171213062950 39 329 1.0 2.0 0.00 0.00 0.00 77 1024.5
20171213062450 39 329 0.0 3.0 0.00 0.00 0.00 77 1024.5
20171213061951 39 329 1.0 3.0 0.00 0.00 0.00 77 1024.4
20171213061449 39 329 1.0 3.0 0.00 0.00 0.00 78 1024.5
20171213060949 39 329 1.0 3.0 0.00 0.00 0.00 78 1024.4
20171213060448 39 329 2.0 2.0 0.00 0.00 0.00 79 1024.4
20171213055948 39 329 0.0 2.0 0.00 0.00 0.00 79 1024.5
20171213055452 40 329 1.0 1.0 0.00 0.00 0.00 78 1024.5
20171213054951 40 329 0.0 2.0 0.00 0.00 0.00 78 1024.4
20171213054451 39 329 0.0 2.0 0.00 0.00 0.00 78 1024.4
20171213053951 40 329 0.0 2.0 0.00 0.00 0.00 78 1024.4
20171213053451 40 329 1.0 2.0 0.00 0.00 0.00 78 1024.5
20171213052950 40 329 0.0 1.0 0.00 0.00 0.00 79 1024.6
20171213052451 40 329 0.0 1.0 0.00 0.00 0.00 79 1024.6
20171213051951 40 329 0.0 1.0 0.00 0.00 0.00 79 1024.6
20171213051450 40 329 0.0 2.0 0.00 0.00 0.00 79 1024.5
20171213050951 40 329 0.0 2.0 0.00 0.00 0.00 80 1024.7
20171213050451 40 329 0.0 0.0 0.00 0.00 0.00 80 1024.7
20171213045950 40 329 0.0 0.0 0.00 0.00 0.00 80 1024.7
20171213045450 40 329 0.0 1.0 0.00 0.00 0.00 80 1024.7
20171213044955 40 329 0.0 1.0 0.00 0.00 0.00 80 1024.6
20171213044455 40 329 0.0 1.0 0.00 0.00 0.00 79 1024.4
20171213043955 40 329 0.0 1.0 0.00 0.00 0.00 80 1024.6
20171213043456 40 329 0.0 1.0 0.00 0.00 0.00 79 1024.5
20171213042956 41 329 0.0 0.0 0.00 0.00 0.00 79 1024.5
20171213042455 41 329 0.0 0.0 0.00 0.00 0.00 79 1024.5
20171213041954 41 329 0.0 0.0 0.00 0.00 0.00 78 1024.5